Regional Weather Roundup
Issued by NWS

Home | Current Version | Previous Version | Text Only | Print | Product List | Glossary On
Versions: 1 2 3 4 5 6 7 8 9 10 11 12 13 14 15 16 17 18 19 20 21 22 23 24 25 26 27 28 29 30 31 32 33 34 35 36 37 38 39 40 41 42 43 44 45 46 47 48 49 50
047
ASUS44 KLIX 290105
RWRLA
LOUISIANA WEATHER ROUNDUP
NATIONAL WEATHER SERVICE NEW ORLEANS LA
800 PM CDT MON JUL 28 2014

NOTE: "FAIR" INDICATES FEW OR NO CLOUDS BELOW 12,000 FEET WITH NO
      SIGNIFICANT WEATHER AND/OR OBSTRUCTIONS TO VISIBILITY.
      SKY/WX - SKY CONDITION AND SIGNIFICANT WEATHER.
      TMP - AIR TEMPERATURE.    DP   - DEWPOINT TEMPERATURE.
      RH  - RELATIVE HUMIDITY.  PRES - PRESSURE.
      HX  - HEAT INDEX.         WCI  - WIND CHILL INDEX.

*  THESE STATIONS ARE NOT NWS OR FAA STATIONS AND ARE NOT UNDER
   NWS QUALITY CONTROL.

LAZ040-048-061>063-065-066-069-290200-
SOUTHEAST LOUISIANA

CITY           SKY/WX    TMP DP  RH WIND       PRES   REMARKS
N.O. AUDUBON     N/A     90  77  66 MISG        N/A  HX 102
N.O. INTL ARPT MOCLDY    87  75  67 W10       29.98R HX  96
N.O. LAKEFRONT PTCLDY    89  78  70 W10       29.98R HX 103
N.O. DOWNTOWN* FAIR      90  72  55 SW6       29.98S HX  96
SLIDELL        PTCLDY    86  76  71 CALM      29.96S HX  96
BATON ROUGE    CLOUDY    84  75  74 NW7       30.00R
BOOTHVILLE     MOCLDY    86  81  85 W12       29.99R HX 102
BELLE CHASSE   MOCLDY    85  76  74 W3        29.97R
BOGALUSA*      FAIR      84  73  69 W7        29.99R
GALLIANO*      NOT AVBL
NEW ROADS*     FAIR      77  71  81 W3        30.02R
GONZALES*      FAIR      85  80  86 CALM      29.99S HX  98
HAMMOND*       MOCLDY    86  75  70 CALM      30.00R HX  95
HOUMA*         PTCLDY    84  76  76 CALM      29.99S HAZE
PORT FOURCHON* CLEAR     86  77  74 W14       30.01R HX  97

$$

LAZ041-044-053-054-290200-
SOUTHWEST LOUISIANA

CITY           SKY/WX    TMP DP  RH WIND       PRES   REMARKS
LAKE CHARLES   PTCLDY    88  74  63 W3        30.01R HX  96
LAFAYETTE      NOT AVBL
PATTERSON      MOCLDY    84  79  84 W5        30.04S HX  96
SALT POINT       N/A     89  80  74 VRB7      29.99F HX 106
NEW IBERIA     CLOUDY    87  76  69 W5        30.01R HX  97
CHENAULT AIRPK NOT AVBL

$$

LAZ027-028-290200-
CENTRAL LOUISIANA

CITY           SKY/WX    TMP DP  RH WIND       PRES   REMARKS
FORT POLK      CLOUDY    86  77  74 N6        30.03S HX  97
ALEXANDRIA INT CLOUDY    82  74  76 CALM      30.01S
ALEXANDRIA     CLOUDY    78  74  87 W5        30.02F

$$

LAZ001-002-290200-
NORTHWEST LOUISIANA

CITY           SKY/WX    TMP DP  RH WIND       PRES   REMARKS
SHREVEPORT     CLOUDY    86  68  54 N6        30.06R
BARKSDALE AFB  CLOUDY    83  67  58 N6        30.07R
DTN SHREVEPORT CLOUDY    85  67  54 CALM      30.07R

$$

LAZ014-016-290200-
NORTHEAST LOUISIANA

CITY           SKY/WX    TMP DP  RH WIND       PRES   REMARKS
MONROE         MOCLDY    84  70  62 N7        30.04R
TALLULAH       CLEAR     80  70  71 N3        30.03R

$$




USA.gov is the U.S. government's official web portal to all federal, state and local government web resources and services.